"Period start","avg(HW err(1)/warn(2) (#))","avg(Visibility (m))","avg(Weather code (#))","avg(Precip intensity (mm/h))","min(HW err(1)/warn(2) (#))","max(HW err(1)/warn(2) (#))","std(HW err(1)/warn(2) (#))","med(HW err(1)/warn(2) (#))","min(Visibility (m))","max(Visibility (m))","std(Visibility (m))","med(Visibility (m))","min(Weather code (#))","max(Weather code (#))","std(Weather code (#))","med(Weather code (#))","min(Precip intensity (mm/h))","max(Precip intensity (mm/h))","std(Precip intensity (mm/h))","med(Precip intensity (mm/h))"
2013-08-03 00:00:00,2,44223,0,0.00,2,2,0,2,35570,50000,4629,45030,0,0,0,0,0.00,0.00,0.00,0.00
2013-08-03 00:10:00,2,46564,0,0.00,2,2,0,2,30096,50000,5933,49261,0,0,0,0,0.00,0.00,0.00,0.00
2013-08-03 00:20:00,2,45641,0,0.00,2,2,0,2,39036,50000,4996,49002,0,0,0,0,0.00,0.00,0.00,0.00
2013-08-03 00:30:00,2,46231,0,0.00,2,2,0,2,39490,50000,4126,47708,0,0,0,0,0.00,0.00,0.00,0.00
2013-08-03 00:40:00,2,46707,0,0.00,2,2,0,2,36937,50000,4152,48876,0,0,0,0,0.00,0.00,0.00,0.00
2013-08-03 00:50:00,2,46457,0,0.00,2,2,0,2,31239,50000,5685,49190,0,0,0,0,0.00,0.00,0.00,0.00
2013-08-03 01:00:00,2,47535,0,0.00,2,2,0,2,37847,50000,4202,50000,0,0,0,0,0.00,0.00,0.00,0.00
2013-08-03 01:10:00,2,46306,0,0.00,2,2,0,2,36244,50000,5209,49202,0,0,0,0,0.00,0.00,0.00,0.00
2013-08-03 01:20:00,2,46184,0,0.00,2,2,0,2,38058,50000,4699,48953,0,0,0,0,0.00,0.00,0.00,0.00
2013-08-03 01:30:00,2,48356,0,0.00,2,2,0,2,40914,50000,3014,50000,0,0,0,0,0.00,0.00,0.00,0.00
2013-08-03 01:40:00,2,29651,0,0.00,2,2,0,2,8522,45478,13304,30370,0,0,0,0,0.00,0.00,0.00,0.00
2013-08-03 01:50:00,2,40474,0,0.00,2,2,0,2,5271,50000,12529,44938,0,0,0,0,0.00,0.00,0.00,0.00
2013-08-03 02:00:00,2,40645,0,0.00,2,2,0,2,10867,50000,13001,46660,0,0,0,0,0.00,0.00,0.00,0.00
2013-08-03 02:10:00,2,48178,0,0.00,2,2,0,2,42848,50000,2212,49000,0,0,0,0,0.00,0.00,0.00,0.00
2013-08-03 02:20:00,2,45817,0,0.00,2,2,0,2,25787,50000,7109,48716,0,0,0,0,0.00,0.00,0.00,0.00
2013-08-03 02:30:00,2,45778,0,0.00,2,2,0,2,38412,50000,3890,46510,0,0,0,0,0.00,0.00,0.00,0.00
2013-08-03 02:40:00,2,48164,0,0.00,2,2,0,2,42785,50000,2794,49930,0,0,0,0,0.00,0.00,0.00,0.00
2013-08-03 02:50:00,2,43544,0,0.00,2,2,0,2,32543,50000,5516,45460,0,0,0,0,0.00,0.00,0.00,0.00
2013-08-03 03:00:00,2,48450,0,0.00,2,2,0,2,40161,50000,3045,50000,0,0,0,0,0.00,0.00,0.00,0.00
2013-08-03 03:10:00,2,44244,0,0.00,2,2,0,2,34960,50000,4264,45010,0,0,0,0,0.00,0.00,0.00,0.00
2013-08-03 03:20:00,2,45893,0,0.00,2,2,0,2,36735,50000,4755,47858,0,0,0,0,0.00,0.00,0.00,0.00
2013-08-03 03:30:00,2,48619,0,0.00,2,2,0,2,43260,50000,2411,50000,0,0,0,0,0.00,0.00,0.00,0.00
2013-08-03 03:40:00,2,46422,0,0.00,2,2,0,2,38953,50000,4363,49234,0,0,0,0,0.00,0.00,0.00,0.00
2013-08-03 03:50:00,2,49453,0,0.00,2,2,0,2,45099,50000,1461,50000,0,0,0,0,0.00,0.00,0.00,0.00
2013-08-03 04:00:00,2,47461,0,0.00,2,2,0,2,38033,50000,3850,49004,0,0,0,0,0.00,0.00,0.00,0.00
2013-08-03 04:10:00,2,48239,0,0.00,2,2,0,2,41014,50000,2697,49636,0,0,0,0,0.00,0.00,0.00,0.00
2013-08-03 04:20:00,2,47810,0,0.00,2,2,0,2,40087,50000,3787,50000,0,0,0,0,0.00,0.00,0.00,0.00
2013-08-03 04:30:00,2,47195,0,0.00,2,2,0,2,30756,50000,5639,49742,0,0,0,0,0.00,0.00,0.00,0.00
2013-08-03 04:40:00,2,47518,0,0.00,2,2,0,2,37956,50000,3761,50000,0,0,0,0,0.00,0.00,0.00,0.00
2013-08-03 04:50:00,2,49042,0,0.00,2,2,0,2,44400,50000,1824,50000,0,0,0,0,0.00,0.00,0.00,0.00
2013-08-03 05:00:00,2,49103,0,0.00,2,2,0,2,45980,50000,1499,50000,0,0,0,0,0.00,0.00,0.00,0.00
2013-08-03 05:10:00,2,49146,0,0.00,2,2,0,2,44081,50000,1737,50000,0,0,0,0,0.00,0.00,0.00,0.00
2013-08-03 05:20:00,2,49755,0,0.00,2,2,0,2,47814,50000,652,50000,0,0,0,0,0.00,0.00,0.00,0.00
2013-08-03 05:30:00,2,48849,0,0.00,2,2,0,2,41745,50000,2443,50000,0,0,0,0,0.00,0.00,0.00,0.00
2013-08-03 05:40:00,2,49903,0,0.00,2,2,0,2,49101,50000,268,50000,0,0,0,0,0.00,0.00,0.00,0.00
2013-08-03 05:50:00,2,48799,0,0.00,2,2,0,2,43906,50000,2403,50000,0,0,0,0,0.00,0.00,0.00,0.00
2013-08-03 06:00:00,2,47998,0,0.00,2,2,0,2,41404,50000,2949,49330,0,0,0,0,0.00,0.00,0.00,0.00
2013-08-03 06:10:00,2,47328,0,0.00,2,2,0,2,36004,50000,4134,49341,0,0,0,0,0.00,0.00,0.00,0.00
2013-08-03 06:20:00,1,45537,0,0.00,0,2,1,2,33930,50000,5237,47458,0,0,0,0,0.00,0.00,0.00,0.00
2013-08-03 06:30:00,1,48766,0,0.00,0,2,1,2,46510,50000,1137,48515,0,0,0,0,0.00,0.00,0.00,0.00
2013-08-03 06:40:00,1,48002,0,0.00,0,2,1,2,38266,50000,3355,48824,0,0,0,0,0.00,0.00,0.00,0.00
2013-08-03 06:50:00,2,47258,0,0.00,2,2,0,2,35982,50000,4347,49222,0,0,0,0,0.00,0.00,0.00,0.00
2013-08-03 07:00:00,1,49656,0,0.00,0,2,1,1,46563,50000,1031,50000,0,0,0,0,0.00,0.00,0.00,0.00
2013-08-03 07:10:00,1,49924,0,0.00,0,2,1,2,49313,50000,205,50000,0,0,0,0,0.00,0.00,0.00,0.00
2013-08-03 07:20:00,0,50000,0,0.00,0,0,0,0,50000,50000,0,50000,0,0,0,0,0.00,0.00,0.00,0.00
2013-08-03 07:30:00,0,47040,0,0.00,0,0,0,0,39300,50000,3900,49746,0,0,0,0,0.00,0.00,0.00,0.00
2013-08-03 07:40:00,1,13942,3,0.00,0,2,1,1,4453,50000,13699,6996,0,10,5,0,0.00,0.00,0.00,0.00
2013-08-03 07:50:00,2,47460,0,0.00,2,2,0,2,36227,50000,4352,49994,0,0,0,0,0.00,0.00,0.00,0.00
2013-08-03 08:00:00,2,43562,0,0.00,2,2,0,2,28329,50000,7371,46694,0,0,0,0,0.00,0.00,0.00,0.00
2013-08-03 08:10:00,2,10576,2,0.00,2,2,0,2,3531,40482,10288,7736,0,10,4,0,0.00,0.00,0.00,0.00
2013-08-03 08:20:00,2,3191,10,0.00,2,2,0,2,2290,4501,658,3070,10,10,0,10,0.00,0.00,0.00,0.00
2013-08-03 08:30:00,2,3955,10,0.00,2,2,0,2,3240,4649,525,4049,10,10,0,10,0.00,0.00,0.00,0.00
2013-08-03 08:40:00,2,9008,10,0.00,2,2,0,2,5350,14692,2642,9203,10,10,0,10,0.00,0.00,0.00,0.00
2013-08-03 08:50:00,2,45714,2,0.00,2,2,0,2,27802,50000,7282,50000,0,10,4,0,0.00,0.00,0.00,0.00
2013-08-03 09:00:00,2,49989,0,0.00,2,2,0,2,49889,50000,33,50000,0,0,0,0,0.00,0.00,0.00,0.00
2013-08-03 09:10:00,2,48124,0,0.00,2,2,0,2,35447,50000,4408,50000,0,0,0,0,0.00,0.00,0.00,0.00
2013-08-03 09:20:00,2,40871,0,0.00,2,2,0,2,12175,50000,14442,50000,0,0,0,0,0.00,0.00,0.00,0.00
2013-08-03 09:30:00,2,49968,0,0.00,2,2,0,2,49679,50000,96,50000,0,0,0,0,0.00,0.00,0.00,0.00
2013-08-03 09:40:00,2,49393,0,0.00,2,2,0,2,46548,50000,1228,50000,0,0,0,0,0.00,0.00,0.00,0.00
2013-08-03 09:50:00,2,47557,0,0.00,2,2,0,2,33122,50000,5003,50000,0,0,0,0,0.00,0.00,0.00,0.00
2013-08-03 10:00:00,2,50000,0,0.00,2,2,0,2,50000,50000,0,50000,0,0,0,0,0.00,0.00,0.00,0.00
2013-08-03 10:10:00,2,50000,0,0.00,2,2,0,2,50000,50000,0,50000,0,0,0,0,0.00,0.00,0.00,0.00
2013-08-03 10:20:00,2,46208,0,0.00,2,2,0,2,12077,50000,11377,50000,0,0,0,0,0.00,0.00,0.00,0.00
2013-08-03 10:30:00,2,44796,0,0.00,2,2,0,2,17614,50000,10184,50000,0,0,0,0,0.00,0.00,0.00,0.00
2013-08-03 10:40:00,2,50000,0,0.00,2,2,0,2,50000,50000,0,50000,0,0,0,0,0.00,0.00,0.00,0.00
2013-08-03 10:50:00,2,49952,0,0.00,2,2,0,2,49518,50000,145,50000,0,0,0,0,0.00,0.00,0.00,0.00
2013-08-03 11:00:00,2,50000,0,0.00,2,2,0,2,50000,50000,0,50000,0,0,0,0,0.00,0.00,0.00,0.00
2013-08-03 11:10:00,2,50000,0,0.00,2,2,0,2,50000,50000,0,50000,0,0,0,0,0.00,0.00,0.00,0.00
2013-08-03 11:20:00,2,50000,0,0.00,2,2,0,2,50000,50000,0,50000,0,0,0,0,0.00,0.00,0.00,0.00
2013-08-03 11:30:00,2,50000,0,0.00,2,2,0,2,50000,50000,0,50000,0,0,0,0,0.00,0.00,0.00,0.00
2013-08-03 11:40:00,2,48546,0,0.00,2,2,0,2,40770,50000,3038,50000,0,0,0,0,0.00,0.00,0.00,0.00
2013-08-03 11:50:00,2,43987,0,0.00,2,2,0,2,34569,50000,5609,45556,0,0,0,0,0.00,0.00,0.00,0.00
2013-08-03 12:00:00,2,43681,0,0.00,2,2,0,2,18808,50000,9242,47530,0,0,0,0,0.00,0.00,0.00,0.00
2013-08-03 12:10:00,2,26692,0,0.00,2,2,0,2,14308,42649,8414,26042,0,0,0,0,0.00,0.00,0.00,0.00
2013-08-03 12:20:00,2,47522,0,0.00,2,2,0,2,34613,50000,4980,50000,0,0,0,0,0.00,0.00,0.00,0.00
2013-08-03 12:30:00,2,49959,0,0.00,2,2,0,2,49592,50000,122,50000,0,0,0,0,0.00,0.00,0.00,0.00
2013-08-03 12:40:00,2,50000,0,0.00,2,2,0,2,50000,50000,0,50000,0,0,0,0,0.00,0.00,0.00,0.00
2013-08-03 12:50:00,2,50000,0,0.00,2,2,0,2,50000,50000,0,50000,0,0,0,0,0.00,0.00,0.00,0.00
2013-08-03 13:00:00,2,48575,0,0.00,2,2,0,2,45969,50000,1360,48694,0,0,0,0,0.00,0.00,0.00,0.00
2013-08-03 13:10:00,2,28106,0,0.00,2,2,0,2,12110,38888,7477,28060,0,0,0,0,0.00,0.00,0.00,0.00
2013-08-03 13:20:00,2,18694,0,0.00,2,2,0,2,10519,34569,7667,16466,0,0,0,0,0.00,0.00,0.00,0.00
2013-08-03 13:30:00,2,15810,0,0.00,2,2,0,2,9332,24857,4576,15072,0,0,0,0,0.00,0.00,0.00,0.00
2013-08-03 13:40:00,2,18909,0,0.00,2,2,0,2,8937,26844,5586,19498,0,0,0,0,0.00,0.00,0.00,0.00
2013-08-03 13:50:00,2,25205,0,0.00,2,2,0,2,10975,48152,11212,22723,0,0,0,0,0.00,0.00,0.00,0.00
2013-08-03 14:00:00,2,39993,0,0.00,2,2,0,2,22253,50000,9285,43828,0,0,0,0,0.00,0.00,0.00,0.00
2013-08-03 14:10:00,2,26119,0,0.00,2,2,0,2,12363,50000,13978,21687,0,0,0,0,0.00,0.00,0.00,0.00
2013-08-03 14:20:00,2,10212,0,0.00,2,2,0,2,6465,18791,3749,8732,0,0,0,0,0.00,0.00,0.00,0.00
2013-08-03 14:30:00,2,8790,9,0.00,2,2,0,2,6180,15853,2546,7966,0,10,3,10,0.00,0.00,0.00,0.00
2013-08-03 14:40:00,2,8743,10,0.00,2,2,0,2,4555,12739,2490,8940,10,10,0,10,0.00,0.00,0.00,0.00
2013-08-03 14:50:00,2,7895,10,0.00,2,2,0,2,5304,14594,2877,6410,10,10,0,10,0.00,0.00,0.00,0.00
2013-08-03 15:00:00,2,13800,7,0.00,2,2,0,2,5486,22542,4783,12883,0,10,5,10,0.00,0.00,0.00,0.00
2013-08-03 15:10:00,2,19026,0,0.00,2,2,0,2,10515,36287,7407,17864,0,0,0,0,0.00,0.00,0.00,0.00
2013-08-03 15:20:00,2,12605,0,0.00,2,2,0,2,8719,17766,2838,13250,0,0,0,0,0.00,0.00,0.00,0.00
2013-08-03 15:30:00,2,22570,0,0.00,2,2,0,2,13654,30445,5141,23519,0,0,0,0,0.00,0.00,0.00,0.00
2013-08-03 15:40:00,2,18374,18,0.16,2,2,0,2,3595,44170,16474,8398,0,51,23,0,0.00,0.90,0.27,0.00
2013-08-03 15:50:00,2,3554,49,0.53,2,2,0,2,2676,4697,569,3640,41,52,4,51,0.15,2.50,0.67,0.28
2013-08-03 16:00:00,2,3552,53,0.40,2,2,0,2,3121,4189,443,3338,51,61,4,51,0.10,0.80,0.24,0.35
2013-08-03 16:10:00,2,3036,52,1.37,2,2,0,2,2387,3757,481,2966,52,52,0,52,0.45,2.70,0.75,1.35
2013-08-03 16:20:00,2,3828,52,0.86,2,2,0,2,3008,4488,441,3838,52,52,0,52,0.25,1.65,0.47,0.68
2013-08-03 16:30:00,2,6340,51,0.31,2,2,0,2,4304,9389,1416,6262,51,51,0,51,0.10,0.75,0.21,0.23
2013-08-03 16:40:00,2,21763,24,0.02,2,2,0,2,12125,37738,7623,19991,0,51,22,10,0.00,0.15,0.05,0.00
2013-08-03 16:50:00,2,37581,0,0.00,2,2,0,2,31627,43624,4099,36256,0,0,0,0,0.00,0.00,0.00,0.00
2013-08-03 17:00:00,2,46627,0,0.00,2,2,0,2,41805,50000,3207,46856,0,0,0,0,0.00,0.00,0.00,0.00
2013-08-03 17:10:00,2,31217,0,0.00,2,2,0,2,10484,50000,13502,29600,0,0,0,0,0.00,0.00,0.00,0.00
2013-08-03 17:20:00,1,47132,0,0.00,0,2,1,2,31568,50000,5743,50000,0,0,0,0,0.00,0.00,0.00,0.00
2013-08-03 17:30:00,2,50000,0,0.00,2,2,0,2,50000,50000,0,50000,0,0,0,0,0.00,0.00,0.00,0.00
2013-08-03 17:40:00,2,49937,0,0.00,2,2,0,2,49367,50000,190,50000,0,0,0,0,0.00,0.00,0.00,0.00
2013-08-03 17:50:00,2,50000,0,0.00,2,2,0,2,50000,50000,0,50000,0,0,0,0,0.00,0.00,0.00,0.00
2013-08-03 18:00:00,2,50000,0,0.00,2,2,0,2,50000,50000,0,50000,0,0,0,0,0.00,0.00,0.00,0.00
2013-08-03 18:10:00,2,50000,0,0.00,2,2,0,2,50000,50000,0,50000,0,0,0,0,0.00,0.00,0.00,0.00
2013-08-03 18:20:00,2,50000,0,0.00,2,2,0,2,50000,50000,0,50000,0,0,0,0,0.00,0.00,0.00,0.00
2013-08-03 18:30:00,2,50000,0,0.00,2,2,0,2,50000,50000,0,50000,0,0,0,0,0.00,0.00,0.00,0.00
2013-08-03 18:40:00,2,50000,0,0.00,2,2,0,2,50000,50000,0,50000,0,0,0,0,0.00,0.00,0.00,0.00
2013-08-03 18:50:00,2,50000,0,0.00,2,2,0,2,50000,50000,0,50000,0,0,0,0,0.00,0.00,0.00,0.00
2013-08-03 19:00:00,2,50000,0,0.00,2,2,0,2,50000,50000,0,50000,0,0,0,0,0.00,0.00,0.00,0.00
2013-08-03 19:10:00,2,50000,0,0.00,2,2,0,2,50000,50000,0,50000,0,0,0,0,0.00,0.00,0.00,0.00
2013-08-03 19:20:00,2,49978,0,0.00,2,2,0,2,49775,50000,68,50000,0,0,0,0,0.00,0.00,0.00,0.00
2013-08-03 19:30:00,2,49150,0,0.00,2,2,0,2,45625,50000,1609,50000,0,0,0,0,0.00,0.00,0.00,0.00
2013-08-03 19:40:00,2,49984,0,0.00,2,2,0,2,49837,50000,49,50000,0,0,0,0,0.00,0.00,0.00,0.00
2013-08-03 19:50:00,2,49976,0,0.00,2,2,0,2,49765,50000,70,50000,0,0,0,0,0.00,0.00,0.00,0.00
2013-08-03 20:00:00,2,49919,0,0.00,2,2,0,2,49193,50000,242,50000,0,0,0,0,0.00,0.00,0.00,0.00
2013-08-03 20:10:00,2,50000,0,0.00,2,2,0,2,50000,50000,0,50000,0,0,0,0,0.00,0.00,0.00,0.00
2013-08-03 20:20:00,2,50000,0,0.00,2,2,0,2,50000,50000,0,50000,0,0,0,0,0.00,0.00,0.00,0.00
2013-08-03 20:30:00,2,49493,0,0.00,2,2,0,2,47359,50000,1015,50000,0,0,0,0,0.00,0.00,0.00,0.00
2013-08-03 20:40:00,2,49630,0,0.00,2,2,0,2,46295,50000,1112,50000,0,0,0,0,0.00,0.00,0.00,0.00
2013-08-03 20:50:00,2,50000,0,0.00,2,2,0,2,50000,50000,0,50000,0,0,0,0,0.00,0.00,0.00,0.00
2013-08-03 21:00:00,2,49291,0,0.00,2,2,0,2,45392,50000,1496,50000,0,0,0,0,0.00,0.00,0.00,0.00
2013-08-03 21:10:00,2,50000,0,0.00,2,2,0,2,50000,50000,0,50000,0,0,0,0,0.00,0.00,0.00,0.00
2013-08-03 21:20:00,2,49533,0,0.00,2,2,0,2,47395,50000,941,50000,0,0,0,0,0.00,0.00,0.00,0.00
2013-08-03 21:30:00,2,50000,0,0.00,2,2,0,2,50000,50000,0,50000,0,0,0,0,0.00,0.00,0.00,0.00
2013-08-03 21:40:00,2,50000,0,0.00,2,2,0,2,50000,50000,0,50000,0,0,0,0,0.00,0.00,0.00,0.00
2013-08-03 21:50:00,2,49800,0,0.00,2,2,0,2,47996,50000,601,50000,0,0,0,0,0.00,0.00,0.00,0.00
2013-08-03 22:00:00,2,49593,0,0.00,2,2,0,2,47509,50000,761,50000,0,0,0,0,0.00,0.00,0.00,0.00
2013-08-03 22:10:00,2,49923,0,0.00,2,2,0,2,49226,50000,232,50000,0,0,0,0,0.00,0.00,0.00,0.00
2013-08-03 22:20:00,2,48415,0,0.00,2,2,0,2,42661,50000,2805,50000,0,0,0,0,0.00,0.00,0.00,0.00
2013-08-03 22:30:00,2,49779,0,0.00,2,2,0,2,48531,50000,467,50000,0,0,0,0,0.00,0.00,0.00,0.00
2013-08-03 22:40:00,2,49854,0,0.00,2,2,0,2,49016,50000,313,50000,0,0,0,0,0.00,0.00,0.00,0.00
2013-08-03 22:50:00,2,49959,0,0.00,2,2,0,2,49589,50000,123,50000,0,0,0,0,0.00,0.00,0.00,0.00
2013-08-03 23:00:00,2,48817,0,0.00,2,2,0,2,43648,50000,2077,50000,0,0,0,0,0.00,0.00,0.00,0.00
2013-08-03 23:10:00,2,37404,0,0.00,2,2,0,2,9249,50000,14470,42285,0,0,0,0,0.00,0.00,0.00,0.00
2013-08-03 23:20:00,2,33262,0,0.00,2,2,0,2,10104,50000,13787,38360,0,0,0,0,0.00,0.00,0.00,0.00
2013-08-03 23:30:00,2,43812,0,0.00,2,2,0,2,34106,50000,5969,45676,0,0,0,0,0.00,0.00,0.00,0.00
2013-08-03 23:40:00,2,43495,0,0.00,2,2,0,2,33693,50000,5065,43081,0,0,0,0,0.00,0.00,0.00,0.00
2013-08-03 23:50:00,2,41988,0,0.00,2,2,0,2,34601,50000,6284,41098,0,0,0,0,0.00,0.00,0.00,0.00
